Location: Katwijk
(52.2000°N, 4.4170°E)
Time: 17:27:19
(UTC+02:00)

ISS - Visible Passes

Search period start: 17 April 2014 00:00
Search period end: 27 April 2014 00:00
Orbit: 414 x 419 km, 51.6° (Epoch: 17 April)

Date Brightness Start Highest point End Pass type
(mag) Time Alt. Az. Time Alt. Az. Time Alt. Az.
17 Apr -2.9 22:02:51 10° W 22:06:09 53° SSW 22:08:06 22° SE visible
17 Apr -0.7 23:40:11 10° WSW 23:41:00 13° WSW 23:41:00 13° WSW visible
18 Apr -1.7 22:51:32 10° W 22:54:17 23° SSW 22:54:34 23° SSW visible
19 Apr -2.1 22:03:02 10° W 22:06:05 32° SSW 22:08:07 17° SSE visible
20 Apr -0.8 22:52:35 10° WSW 22:53:54 12° SW 22:54:34 11° SSW visible
21 Apr -1.1 22:03:25 10° W 22:05:42 17° SW 22:07:59 10° S visible
